星链-31453 (STARLINK-31453 )

导读

STARLINK-31453是美国太空探索技术公司SpaceX星链互联网卫星星座中的一员,于2024年4月17日发射升空。星链项目旨在构建全球卫星互联网覆盖网络,该卫星入轨后,将和其他星链卫星协同工作,为全球多地用户提供低延迟、高速率的宽带互联网服务。

基本信息
目录编号:
59522
目录名称:
STARLINK-31453
国际标识:
2024-073M
轨道中心:
EARTH
卫星名称:
星链-31453
卫星全名:
星链-31453 (STARLINK-31453 )
卫星状态:
在轨 (已飞行870 天)
发射日期:
2024-04-17 UTC
国别 :
美国 (US)
星等 :
--
轨道信息
数据来源 国际轨道数据
星历时间: 2026-09-03T23:29:09+0800
16小时前
查看轨道信息
半长轴: 6861.192km
偏心率: 0.0001965
轨道倾角: 43.001°
近地点辐角 271.966°
升交点赤经 15.244°
平近点角 88.097°
近地点: 481.706km
远地点: 484.404km
周期: 94.267分钟
每日圈数: 15.275781
详细信息
固有亮度:
5
最大亮度:
1.5
卫星平台:
Starlink v2.0 mini
覆盖范围:
全球
运营商:
太空探索技术公司
运营商所在国:
美国
制造商(研发单位):
太空探索技术公司
制造商所在国:
美国
使用方式:
暂无
卫星简介
星链(Starlink)计划是由太空探索技术公司(SpaceX)提出的一个巨型低轨卫星互联网星座项目,计划在2019年至2024年间在太空搭建由约1.2万颗卫星组成的“星链”网络,其中1584颗将部署在地球上空550千米处的近地轨道,并从2020年开始工作。该卫星仍在工作。
2D轨道图
3D轨道图
轨道高度分析图
轨道倾角分析图
轨道综合分析图
查看轨道综合分析图
交会数据列表
事件ID 空间交会对象 最接近时刻(TCA) 交会距离 交会风险概率(CRP) 交会风险指数(CRI) 操作
CDM_260903-080505-321405-952221
2026-09-03T
08:05:45+0000
0.838 km
远距离
3.837306E-5 中风险 0.67
CDM_260903-143605-919005-952222
2026-09-03T
14:36:54+0000
1.187 km
极远距离
1.141156E-5 中风险 0.56
CDM_260904-035705-919005-952222
2026-09-04T
03:57:11+0000
1.297 km
极远距离
8.418231E-6 低风险 0.54
CDM_260904-142605-777405-952221
2026-09-04T
14:26:27+0000
1.460 km
极远距离
4.875463E-6 低风险 0.49
CDM_260903-075105-952206-408521
2026-09-03T
07:51:08+0000
1.486 km
极远距离
4.516863E-6 低风险 0.48
CDM_260905-084905-952206-368121
2026-09-05T
08:49:41+0000
1.482 km
极远距离
4.357414E-6 低风险 0.48
CDM_260903-092505-952206-408521
2026-09-03T
09:25:17+0000
1.595 km
极远距离
3.61664E-6 低风险 0.46
CDM_260904-213005-777405-952221
2026-09-04T
21:30:07+0000
1.648 km
极远距离
3.3389E-6 低风险 0.45
CDM_260903-161105-919005-952222
2026-09-03T
16:11:03+0000
1.796 km
极远距离
2.993538E-6 低风险 0.45
CDM_260904-123005-847305-952221
2026-09-04T
12:30:53+0000
1.905 km
极远距离
2.421579E-6 低风险 0.43